Location: Amieira
(39.6008°N, 8.1424°W)
Time: 23:10:53
(UTC+00:00)

Daily predictions for brighter satellites

Satellite Brightness Start Highest point End
(mag) Time Altitude Azimuth Time Altitude Azimuth Time Altitude Azimuth
Cosmos 2112 Rocket 4.2 18:52:33 10° N 18:57:37 50° ENE 19:02:41 10° SE
Cosmos 1937 Rocket 3.8 18:53:06 10° S 18:58:07 47° ESE 19:03:06 10° NNE
CZ-2C R/B 2.1 18:58:07 10° SW 19:01:17 28° SSE 19:04:16 10° ESE
Cosmos 1680 Rocket 3.5 18:56:17 10° NNW 19:01:29 64° ENE 19:06:41 10° SSE
MOS 1 Rocket 3.9 19:02:34 10° NNE 19:06:28 30° E 19:10:14 10° SSE
Cosmos 1842 3.6 19:05:01 10° N 19:08:44 44° E 19:12:26 10° SSE
NOSS 8 (H) 4.4 19:06:47 10° SW 19:10:13 78° WNW 19:13:14 10° NNE
Cosmos 1975 Rocket 3.5 19:09:41 10° N 19:13:44 37° ENE 19:17:45 10° SSE
NOSS 2-2 (E) 3.1 19:10:31 10° SSW 19:13:56 53° ESE 19:17:32 10° NE
Cosmos 2084 Rocket 4.0 19:11:55 10° NNW 19:16:12 43° NE 19:20:31 10° ESE
COSMO-SKYMED 1 4.3 19:12:40 10° N 19:16:42 39° WNW 19:20:44 10° SW
H-2A R/B 2.2 19:14:23 10° SE 19:19:06 47° ENE 19:23:55 10° N
ARGOS 3.7 19:15:26 10° SE 19:20:20 38° ENE 19:25:17 10° N
Cosmos 158 Rocket 4.2 19:16:40 10° NNW 19:21:56 75° WSW 19:27:00 10° S
NOSS 2-2 (D) 3.2 19:18:59 10° SSW 19:22:23 50° ESE 19:25:56 10° NE
Cosmos 1707 3.9 19:20:02 10° NNE 19:23:09 23° ENE 19:25:43 13° SE
Sich 1 Rocket 3.9 19:20:22 10° SSE 19:24:36 45° E 19:28:55 10° NNE
Iridium 4 Rocket 3.6 19:20:38 10° S 19:25:24 81° W 19:30:42 10° N
CZ-2C R/B 3.5 19:22:24 10° NE 19:27:07 28° E 19:31:50 10° SSE
DMSP B5D1-3 4.5 19:22:25 10° NNE 19:27:32 87° ESE 19:32:38 10° SSW
SL-16 R/B 4.4 19:23:47 10° NW 19:28:30 28° WSW 19:33:12 10° SSW
CENTAUR R/B 4.4 19:26:49 10° NNW 19:32:56 23° NE 19:38:33 13° E
Cosmos 2263 Rocket 2.7 19:30:19 10° SW 19:35:48 62° WNW 19:41:21 10° NNE
SL-08 RB Rocket 4.3 19:32:47 11° SE 19:36:44 35° ENE 19:40:55 10° N
Milstar 3 Cent rocket 3.9 19:33:11 10° SSW 19:37:02 16° S 19:39:33 12° SE
ISS -3.9 19:35:04 10° SW 19:38:25 82° SE 19:41:13 14° NE
SJ 16-02 4.0 19:36:19 10° WSW 19:39:48 23° WNW 19:43:18 10° N
Abrixas rocket 4.4 19:38:14 10° NW 19:40:13 17° NNW 19:42:12 10° NNE
DELTA 2 R/B (1) 3.7 19:35:10 10° W 19:40:42 72° SSW 19:44:35 20° ESE
CZ-2C R/B 3.3 19:37:18 10° S 19:42:26 78° WSW 19:47:54 10° NNW
Cosmos 1844 Rocket 3.4 19:38:27 10° SSE 19:43:11 30° ESE 19:47:58 10° NE
Okean 2 Rocket 3.3 19:40:25 10° SSE 19:44:44 47° E 19:49:03 10° NNE
SJ-11-01 4.3 19:41:46 10° S 19:46:29 83° WSW 19:51:13 10° NNW
Cosmos 1464 Rocket 3.9 19:42:15 10° S 19:48:13 60° E 19:54:17 10° NNE
Lacrosse 5 rocket 4.2 19:47:23 10° NW 19:49:11 12° NNW 19:51:02 10° N
Cosmos 1437 3.4 19:49:27 10° NNW 19:52:22 50° W 19:55:16 10° S
Ariane Rocket 3.3 19:49:58 18° SE 19:53:24 45° ENE 19:58:14 10° N
Cosmos 1943 3.3 19:49:04 10° NNW 19:54:44 79° WSW 20:00:23 10° SSE
Meteor 1-12 Rocket 4.3 19:49:54 10° S 19:55:47 69° E 20:01:37 10° NNE
Cosmos 1300 Rocket 3.5 19:53:23 10° S 19:57:42 65° E 20:02:05 10° NNE
Cosmos 2298 Rocket 4.0 19:56:43 10° S 20:01:54 57° ESE 20:07:08 10° NNE
MetOp-A 4.4 20:03:47 27° SE 20:06:19 48° ENE 20:11:27 10° N
NOSS 2-2 (C) 4.1 20:03:35 10° SW 20:06:58 45° NW 20:10:35 10° NNE
NOSS 3-2 (A) 4.5 20:02:50 10° NNW 20:10:04 45° NE 20:13:57 29° ESE
Cosmos 1867 3.5 20:11:40 10° NNW 20:17:09 76° ENE 20:19:17 38° SE
Cosmos 1536 Rocket 3.6 20:13:28 10° N 20:17:51 55° E 20:18:27 51° ESE
BREEZE-M DEB (TANK) 3.5 20:18:09 10° NW 20:19:17 29° NW 20:19:17 29° NW
USA 186 1.8 20:20:19 68° WSW 20:20:23 69° W 20:23:32 10° NNW
Cosmos 2151 Rocket 3.5 20:21:28 10° S 20:25:54 84° W 20:30:24 10° N
DMSP B5D2-2 4.0 20:24:11 10° NNE 20:29:31 87° ESE 20:34:48 10° SSW
USA 234 3.1 20:23:16 10° NE 20:29:50 83° SE 20:36:24 10° SW
Meteor 2-5 Rocket 4.4 20:25:46 10° N 20:30:35 36° ENE 20:30:35 36° ENE
Cosmos 1025 Rocket 3.1 20:27:12 10° N 20:31:33 75° W 20:33:04 40° S
Cosmos 2150 Rocket 4.1 20:26:39 10° SSW 20:32:00 83° WNW 20:37:28 10° NNE
OBJECT-B 3.0 20:34:34 19° N 20:34:34 19° N 20:35:40 10° N
CZ-2C R/B 2.8 20:37:19 10° WSW 20:39:00 23° SW 20:39:00 23° SW
Cosmos 1125 Rocket 3.4 20:37:28 10° SSW 20:42:45 82° ESE 20:48:06 10° NNE
NOSS 3-2 (C) 4.4 20:36:58 10° NNW 20:44:15 47° NE 20:46:12 41° E
BREEZE-M DEB (TANK) 3.5 20:41:02 10° NW 20:44:46 85° NE 20:47:13 46° ESE
Cosmos 2034 Rocket 4.3 20:38:51 10° SSW 20:45:12 68° W 20:51:33 10° N
Nadezhda 4 Rocket 3.9 20:40:07 10° N 20:46:15 80° W 20:49:18 32° S
Cosmos 1674 4.1 20:42:24 10° N 20:44:32 31° N 20:44:32 31° N
Resurs 01 Rocket 2.9 20:56:51 32° N 20:56:51 32° N 20:59:23 10° N
SJ-6B 4.1 20:57:25 35° W 20:57:25 35° W 21:00:41 10° NNW
Meteor 1-24 Rocket 4.5 20:52:34 10° N 20:56:23 38° NE 20:56:23 38° NE
Exosat Rocket 3.8 20:57:31 10° SSW 21:03:29 70° WNW 21:08:30 10° NNE
CZ-2C R/B 4.1 21:02:20 10° N 21:07:25 38° WNW 21:12:33 10° SW
ATLAS 2AS CENTAUR R/B 3.8 21:00:31 10° SSW 21:11:59 33° NE 21:16:00 10° NE
Cosmos 1048 Rocket 4.4 21:09:22 10° NNW 21:14:27 59° W 21:14:27 59° W
Cosmos 1844 4.2 21:09:25 10° SW 21:15:02 57° WNW 21:20:37 10° NNE
ISS -0.6 21:13:07 10° WNW 21:14:13 15° NW 21:14:13 15° NW
Cosmos 1634 Rocket 3.9 21:19:01 80° NNW 21:19:01 80° NNW 21:24:56 10° N
Cosmos 2285 Rocket 4.4 21:17:56 10° SSW 21:24:06 58° WNW 21:30:22 10° NNE
CENTAUR R/B 3.1 21:16:48 10° NNW 21:25:03 73° NE 21:25:43 70° E
Cosmos 1844 Rocket 4.0 21:21:49 10° SW 21:26:55 36° WNW 21:32:04 10° N
ATLAS 3B R/B 3.9 21:24:48 10° NNW 21:30:03 30° NNE 21:30:03 30° NNE
USA 238 DEB 3.9 21:25:38 10° NW 21:32:54 73° WSW 21:33:05 72° SW
USA 238 3.9 21:25:44 10° NW 21:33:01 73° WSW 21:33:10 73° SW
Cosmos 1833 Rocket 4.5 21:47:05 10° N 21:49:28 24° N 21:49:28 24° N
ATLAS 2AS CENTAUR R/B 4.2 22:52:27 10° WSW 22:59:39 36° NW 23:06:49 10° NNE
